Tracking 30922 objects as of 2-Jul-2025
HD Live streaming from Space Station
objects crossing your sky now

DELTA 1 R/B

Track DELTA 1 R/B now!
10-day predictions


NORAD ID: 10704
Int'l Code: 1978-026C
Perigee: 888.9 km
Apogee: 995.3 km
Inclination: 98.8 °
Period: 103.7 minutes
Semi major axis: 7313 km
RCS: 5.2616 m2 (large)
Launch date: March 5, 1978
Source: United States (US)
Launch site: AIR FORCE WESTERN TEST RANGE (AFWTR)

Note: This is a ROCKET BODY
Your satellite tracking list
STARLINK-6059
Track 1 satellite(s)




NASA's NSSDC Master Catalog

Two Line Element Set (TLE):
1 10704U 78026C   25182.87479879  .00000003  00000-0  35858-4 0  9998
2 10704  98.8419  48.5222 0072726 168.4573 191.8273 13.88198422248971
Source of the keplerian elements: AFSPC